Regional Weather Roundup
Issued by NWS

Home | Current Version | Previous Version | Graphics & Text | Print | Product List | Glossary On
Versions: 1 2 3 4 5 6 7 8 9 10 11 12 13 14 15 16 17 18 19 20 21 22 23 24 25 26 27 28 29 30 31 32 33 34 35 36 37 38 39 40 41 42 43 44 45 46 47 48 49 50
000
ASUS43 KLMK 022102
RWRKY
KENTUCKY REGIONAL WEATHER ROUNDUP
NATIONAL WEATHER SERVICE LOUISVILLE KY
500 PM EDT SUN AUG 02 2015

NOTE "FAIR" INDICATES FEW OR NO CLOUDS BELOW 12,000 FEET
WITH NO SIGNIFICANT WEATHER AND/OR OBSTRUCTIONS TO VISIBILITY.

KYZ001>023-026-027-061>063-070>075-022200-
WESTERN AND SOUTH CENTRAL KENTUCKY

CITY           SKY/WX    TMP DP  RH WIND       PRES   REMARKS
PADUCAH        MOSUNNY   89  73  59 S6        29.91F HX  97
HENDERSON      SUNNY     88  70  55 S5        29.91F HX  92
OWENSBORO      SUNNY     88  66  47 S8        29.93F HX  90
HOPKINSVILLE   NOT AVBL
BOWLING GREEN  SUNNY     89  60  37 E5        29.95F
GLASGOW        NOT AVBL
$$

KYZ024-025-028>034-038-045-046-053-022200-
NORTH CENTRAL KENTUCKY

CITY           SKY/WX    TMP DP  RH WIND       PRES   REMARKS
LOUISVILLE/SDF MOSUNNY   90  59  35 VRB6      29.92F
LOUISVILLE/LOU MOSUNNY   88  58  36 S5        29.93F
FORT KNOX      NOT AVBL
$$

KYZ035>037-039>044-047>052-055>060-089>105-022200-
NORTHEAST KENTUCKY

CITY           SKY/WX    TMP DP  RH WIND       PRES   REMARKS
LEXINGTON      MOSUNNY   86  58  38 W7        29.97F
COVINGTON      MOSUNNY   86  62  44 SW8       29.94F
FRANKFORT      MOSUNNY   86  58  38 VRB3      29.95F
$$

KYZ054-064>069-076>088-106>120-022200-
SOUTHEAST KENTUCKY

CITY           SKY/WX    TMP DP  RH WIND       PRES   REMARKS
JACKSON        SUNNY     84  58  40 CALM      30.00F
LONDON         SUNNY     86  54  33 E5        29.98F
SOMERSET       NOT AVBL
MIDDLESBORO    MOSUNNY   87  60  40 S5        29.97F
MONTICELLO     CLEAR     90  65  43 N5        29.99F HX  92
$$




USA.gov is the U.S. government's official web portal to all federal, state and local government web resources and services.